Location: Sungai Igah
(2.7333°N, 114.2500°E)
Time: 12:01:01
(UTC+00:00)

ADEOS - Pass Details

Date: 14 June 2021
Orbit: 793 x 794 km, 98.9° (Epoch: 04 August)

Event Time Altitude Azimuth Distance (km) Brightness Sun altitude
Rises 20:42:20 0° 22° (NNE) 3,279 7.5 -21.9°
Reaches altitude 10° 20:44:43 10° 28° (NNE) 2,352 6.8 -21.4°
Maximum altitude 20:49:44 50° 103° (ESE) 998 4.3 -20.2°
Drops below altitude 10° 20:54:46 10° 177° (S) 2,359 5.8 -19.1°
Enters shadow 20:55:52 - 180° (S) 2,785 6.1 -18.9°
